QPF
0.00 0.00 0.00 0.00 0.00 0.00 0.00 0.00 0.00 0.00 0.00 0.00 0.00 0.00 0.00 0.00 0.00 0.00 0.00 0.00 0.00 0.00 0.00 0.00 0.00 0.01 0.02 0.01 0.01 0.00 0.00 0.00 0.00 0.00 0.00 0.00 0.00 0.00 0.00 0.00 0.00 0.00 0.00 0.00
0.00 0.00 0.00 0.00 0.00 0.00 0.00 0.00 0.00 0.00 0.00 0.00 0.00 0.00 0.00 0.00 0.00 0.00 0.00 0.00 0.00 0.00 0.00 0.00 0.00 0.01 0.01 0.01 0.00 0.00 0.00 0.00 0.00 0.00 0.00 0.00 0.00 0.00 0.00 0.00 0.00 0.00 0.00 0.01
0.00 0.00 0.00 0.00 0.00 0.00 0.00 0.00 0.00 0.00 0.00 0.00 0.00 0.00 0.00 0.00 0.00 0.00 0.00 0.00 0.00 0.00 0.00 0.00 0.00 0.01 0.01 0.01 0.01 0.00 0.00 0.00 0.00 0.00 0.00 0.00 0.00 0.00 0.00 0.00 0.01 0.02 0.04 0.07
0.00 0.00 0.00 0.00 0.00 0.00 0.00 0.00 0.00 0.00 0.00 0.00 0.00 0.00 0.00 0.00 0.00 0.00 0.00 0.00 0.00 0.00 0.00 0.00 0.00 0.00 0.01 0.02 0.01 0.00 0.00 0.00 0.00 0.00 0.00 0.00 0.01 0.01 0.02 0.04 0.06 0.07 0.07 0.06
0.00 0.00 0.00 0.00 0.00 0.00 0.00 0.00 0.00 0.00 0.00 0.00 0.00 0.00 0.00 0.00 0.00 0.00 0.00 0.00 0.00 0.00 0.00 0.00 0.00 0.01 0.01 0.01 0.00 0.00 0.00 0.00 0.00 0.01 0.03 0.05 0.07 0.08 0.08 0.07 0.05 0.03 0.02 0.01
0.00 0.00 0.00 0.00 0.00 0.00 0.00 0.00 0.00 0.00 0.00 0.00 0.00 0.00 0.00 0.00 0.00 0.00 0.00 0.00 0.00 0.00 0.00 0.00 0.00 0.00 0.00 0.00 0.00 0.01 0.02 0.03 0.05 0.09 0.12 0.10 0.09 0.06 0.03 0.01 0.00 0.00 0.00 0.00
0.00 0.00 0.00 0.00 0.00 0.00 0.00 0.00 0.00 0.00 0.00 0.00 0.00 0.00 0.00 0.00 0.00 0.00 0.00 0.00 0.00 0.00 0.00 0.00 0.00 0.00 0.00 0.00 0.02 0.04 0.05 0.06 0.05 0.04 0.03 0.02 0.01 0.00 0.00 0.00 0.00 0.00 0.00 0.00
0.00 0.00 0.00 0.00 0.00 0.00 0.00 0.00 0.00 0.00 0.00 0.00 0.00 0.00 0.00 0.00 0.00 0.00 0.00 0.00 0.00 0.00 0.00 0.00 0.00 0.00 0.00 0.00 0.01 0.02 0.02 0.01 0.01 0.00 0.00 0.00 0.00 0.00 0.00 0.00 0.00 0.00 0.00 0.00
0.00 0.00 0.00 0.00 0.00 0.00 0.00 0.00 0.00 0.00 0.00 0.00 0.00 0.00 0.00 0.00 0.00 0.00 0.00 0.00 0.00 0.00 0.00 0.00 0.00 0.00 0.00 0.00 0.00 0.00 0.00 0.00 0.00 0.00 0.00 0.00 0.00 0.00 0.00 0.00 0.00 0.00 0.00 0.00
0.00 0.00 0.00 0.00 0.00 0.00 0.00 0.00 0.00 0.00 0.00 0.00 0.00 0.00 0.00 0.00 0.00 0.00 0.00 0.00 0.00 0.00 0.00 0.00 0.00 0.00 0.00 0.00 0.00 0.00 0.00 0.00 0.00 0.00 0.00 0.00 0.00 0.00 0.00 0.00 0.00 0.00 0.00 0.00
0.00 0.00 0.00 0.00 0.00 0.00 0.00 0.00 0.00 0.00 0.00 0.00 0.00 0.00 0.00 0.00 0.00 0.00 0.00 0.00 0.00 0.00 0.00 0.00 0.00 0.00 0.00 0.00 0.00 0.00 0.00 0.00 0.00 0.00 0.00 0.00 0.00 0.00 0.00 0.00 0.00 0.00 0.00 0.00
0.00 0.00 0.00 0.00 0.00 0.00 0.00 0.00 0.00 0.00 0.00 0.00 0.00 0.00 0.00 0.00 0.00 0.00 0.00 0.00 0.00 0.00 0.00 0.00 0.00 0.00 0.00 0.00 0.00 0.00 0.00 0.00 0.00 0.00 0.00 0.00 0.00 0.00 0.00 0.00 0.00 0.00 0.00 0.00
0.00 0.00 0.00 0.00 0.00 0.00 0.00 0.00 0.00 0.00 0.00 0.00 0.00 0.00 0.00 0.00 0.00 0.00 0.00 0.00 0.00 0.00 0.00 0.00 0.00 0.00 0.00 0.00 0.00 0.00 0.00 0.00 0.00 0.00 0.00 0.00 0.00 0.00 0.00 0.00 0.00 0.00 0.00 0.00
0.00 0.00 0.00 0.00 0.00 0.00 0.00 0.00 0.00 0.00 0.00 0.00 0.00 0.00 0.00 0.00 0.00 0.00 0.00 0.00 0.00 0.00 0.00 0.00 0.00 0.00 0.00 0.00 0.00 0.00 0.00 0.00 0.00 0.00 0.00 0.00 0.00 0.00 0.00 0.00 0.00 0.00 0.00 0.00
0.00 0.00 0.00 0.00 0.00 0.00 0.00 0.00 0.00 0.00 0.00 0.00 0.00 0.00 0.00 0.00 0.00 0.00 0.00 0.00 0.00 0.00 0.00 0.00 0.00 0.00 0.00 0.00 0.00 0.00 0.00 0.00 0.00 0.00 0.00 0.00 0.00 0.00 0.00 0.00 0.00 0.00 0.01 0.01
0.00 0.00 0.00 0.00 0.00 0.00 0.00 0.00 0.00 0.00 0.00 0.00 0.00 0.00 0.00 0.00 0.00 0.00 0.00 0.00 0.00 0.00 0.00 0.00 0.00 0.00 0.00 0.00 0.00 0.00 0.00 0.00 0.00 0.00 0.00 0.00 0.00 0.00 0.00 0.00 0.01 0.01 0.01 0.00
0.00 0.00 0.00 0.00 0.00 0.00 0.00 0.00 0.00 0.00 0.00 0.00 0.00 0.00 0.00 0.00 0.00 0.00 0.00 0.00 0.00 0.00 0.00 0.00 0.00 0.00 0.00 0.00 0.00 0.00 0.00 0.00 0.00 0.00 0.00 0.00 0.00 0.00 0.00 0.01 0.02 0.02 0.01 0.00
0.00 0.00 0.00 0.00 0.00 0.00 0.00 0.00 0.00 0.00 0.00 0.00 0.00 0.00 0.00 0.00 0.00 0.00 0.00 0.00 0.00 0.00 0.00 0.00 0.00 0.00 0.00 0.00 0.00 0.00 0.00 0.00 0.00 0.00 0.00 0.00 0.00 0.01 0.02 0.03 0.02 0.01 0.01 0.01
0.00 0.00 0.00 0.00 0.00 0.00 0.00 0.00 0.00 0.00 0.00 0.00 0.00 0.00 0.00 0.00 0.00 0.00 0.00 0.00 0.00 0.00 0.00 0.00 0.00 0.00 0.00 0.00 0.00 0.00 0.00 0.00 0.01 0.01 0.01 0.01 0.02 0.02 0.02 0.01 0.01 0.01 0.01 0.01
0.00 0.00 0.00 0.00 0.00 0.00 0.00 0.00 0.00 0.00 0.00 0.00 0.00 0.00 0.00 0.00 0.00 0.00 0.00 0.00 0.00 0.00 0.00 0.00 0.00 0.00 0.00 0.00 0.00 0.01 0.01 0.01 0.01 0.02 0.02 0.03 0.02 0.01 0.01 0.01 0.01 0.01 0.02 0.02
0.00 0.00 0.00 0.00 0.00 0.00 0.00 0.00 0.00 0.00 0.00 0.00 0.00 0.00 0.00 0.00 0.00 0.00 0.00 0.00 0.00 0.00 0.00 0.00 0.00 0.00 0.00 0.00 0.01 0.02 0.02 0.02 0.02 0.02 0.02 0.02 0.02 0.00 0.00 0.00 0.01 0.01 0.00 0.00
0.00 0.00 0.00 0.00 0.00 0.00 0.00 0.00 0.00 0.00 0.00 0.00 0.00 0.00 0.00 0.00 0.00 0.00 0.00 0.00 0.00 0.00 0.00 0.00 0.00 0.00 0.00 0.01 0.02 0.03 0.02 0.02 0.01 0.01 0.01 0.00 0.00 0.00 0.00 0.00 0.00 0.00 0.00 0.00
0.00 0.00 0.00 0.00 0.00 0.00 0.00 0.00 0.00 0.00 0.00 0.00 0.00 0.00 0.00 0.00 0.00 0.00 0.00 0.00 0.00 0.00 0.00 0.00 0.00 0.00 0.00 0.01 0.01 0.01 0.01 0.00 0.00 0.00 0.00 0.00 0.00 0.00 0.00 0.00 0.00 0.00 0.00 0.00
0.00 0.00 0.00 0.00 0.00 0.00 0.00 0.00 0.00 0.00 0.00 0.00 0.00 0.00 0.00 0.00 0.00 0.00 0.00 0.00 0.00 0.00 0.00 0.00 0.00 0.00 0.00 0.00 0.00 0.00 0.00 0.00 0.00 0.00 0.00 0.00 0.00 0.00 0.00 0.00 0.00 0.00 0.00 0.00
0.00 0.00 0.00 0.00 0.00 0.00 0.00 0.00 0.00 0.00 0.00 0.00 0.00 0.00 0.00 0.00 0.00 0.00 0.00 0.00 0.00 0.00 0.00 0.00 0.00 0.00 0.00 0.00 0.00 0.00 0.00 0.00 0.00 0.00 0.00 0.00 0.00 0.00 0.00 0.00 0.00 0.00 0.00 0.00
0.00 0.00 0.00 0.00 0.00 0.00 0.00 0.00 0.00 0.00 0.00 0.00 0.00 0.00 0.00 0.00 0.00 0.00 0.00 0.00 0.00 0.00 0.00 0.00 0.00 0.00 0.00 0.00 0.00 0.00 0.00 0.00 0.00 0.00 0.00 0.00 0.00 0.00 0.00 0.00 0.00 0.00 0.00 0.00
MSLP
1012.53 1013.35 1014.00 1014.46 1014.74 1014.86 1014.87 1014.80 1014.71 1014.59 1014.47 1014.35 1014.20 1014.02 1013.83 1013.61 1013.40 1013.22 1013.08 1013.01 1013.02 1013.10 1013.26 1013.49 1013.77 1014.10 1014.46 1014.84 1015.24 1015.66 1016.08 1016.49 1016.87 1017.22 1017.51 1017.74 1017.89 1017.97 1017.98 1017.95 1017.88 1017.81 1017.74 1017.70
1012.91 1013.60 1014.12 1014.46 1014.66 1014.76 1014.80 1014.83 1014.88 1014.93 1014.98 1015.00 1014.97 1014.86 1014.69 1014.46 1014.22 1013.99 1013.80 1013.70 1013.69 1013.76 1013.92 1014.15 1014.42 1014.72 1015.03 1015.37 1015.71 1016.07 1016.44 1016.81 1017.17 1017.50 1017.77 1017.97 1018.10 1018.15 1018.12 1018.05 1017.95 1017.85 1017.77 1017.72
1013.04 1013.61 1014.00 1014.24 1014.39 1014.51 1014.63 1014.81 1015.04 1015.31 1015.57 1015.77 1015.88 1015.88 1015.76 1015.55 1015.28 1015.02 1014.79 1014.65 1014.60 1014.64 1014.77 1014.96 1015.19 1015.43 1015.69 1015.95 1016.22 1016.50 1016.81 1017.13 1017.44 1017.74 1017.99 1018.17 1018.28 1018.31 1018.26 1018.16 1018.04 1017.92 1017.83 1017.77
1012.98 1013.42 1013.70 1013.89 1014.03 1014.20 1014.46 1014.82 1015.27 1015.78 1016.27 1016.68 1016.96 1017.08 1017.03 1016.85 1016.57 1016.28 1016.01 1015.81 1015.71 1015.70 1015.78 1015.91 1016.06 1016.23 1016.40 1016.57 1016.75 1016.95 1017.18 1017.44 1017.71 1017.97 1018.20 1018.36 1018.46 1018.47 1018.42 1018.31 1018.17 1018.03 1017.92 1017.84
1012.80 1013.13 1013.34 1013.50 1013.67 1013.94 1014.35 1014.92 1015.61 1016.35 1017.08 1017.70 1018.15 1018.39 1018.42 1018.27 1017.99 1017.67 1017.35 1017.10 1016.94 1016.87 1016.87 1016.92 1016.99 1017.08 1017.15 1017.23 1017.32 1017.44 1017.59 1017.79 1018.01 1018.23 1018.43 1018.59 1018.67 1018.67 1018.61 1018.49 1018.34 1018.19 1018.04 1017.92
1012.63 1012.87 1013.02 1013.18 1013.41 1013.79 1014.37 1015.13 1016.04 1017.01 1017.94 1018.75 1019.34 1019.69 1019.79 1019.67 1019.40 1019.05 1018.71 1018.40 1018.18 1018.04 1017.97 1017.95 1017.95 1017.95 1017.94 1017.93 1017.94 1017.99 1018.08 1018.21 1018.38 1018.56 1018.74 1018.87 1018.93 1018.93 1018.85 1018.72 1018.55 1018.36 1018.18 1018.01
1012.55 1012.71 1012.84 1013.01 1013.31 1013.80 1014.52 1015.45 1016.54 1017.68 1018.77 1019.70 1020.41 1020.83 1020.99 1020.90 1020.64 1020.28 1019.91 1019.58 1019.31 1019.13 1019.01 1018.93 1018.87 1018.81 1018.74 1018.68 1018.63 1018.61 1018.64 1018.72 1018.84 1018.99 1019.12 1019.22 1019.26 1019.23 1019.13 1018.97 1018.76 1018.54 1018.30 1018.06
1012.61 1012.72 1012.83 1013.02 1013.38 1013.96 1014.79 1015.84 1017.03 1018.27 1019.45 1020.45 1021.22 1021.69 1021.88 1021.81 1021.56 1021.22 1020.85 1020.52 1020.24 1020.04 1019.90 1019.80 1019.72 1019.63 1019.54 1019.44 1019.36 1019.31 1019.30 1019.33 1019.40 1019.49 1019.57 1019.62 1019.62 1019.55 1019.40 1019.20 1018.96 1018.67 1018.37 1018.05
1012.81 1012.90 1013.01 1013.23 1013.64 1014.27 1015.15 1016.24 1017.47 1018.73 1019.91 1020.92 1021.69 1022.17 1022.37 1022.33 1022.11 1021.80 1021.47 1021.16 1020.91 1020.74 1020.62 1020.53 1020.46 1020.39 1020.30 1020.20 1020.11 1020.04 1020.00 1019.99 1020.01 1020.04 1020.06 1020.04 1019.97 1019.84 1019.64 1019.38 1019.08 1018.73 1018.36 1017.97
1013.13 1013.23 1013.36 1013.61 1014.04 1014.69 1015.57 1016.64 1017.82 1019.02 1020.14 1021.10 1021.82 1022.27 1022.47 1022.45 1022.28 1022.02 1021.75 1021.51 1021.32 1021.20 1021.13 1021.10 1021.07 1021.03 1020.98 1020.91 1020.84 1020.76 1020.70 1020.65 1020.61 1020.57 1020.51 1020.41 1020.26 1020.05 1019.78 1019.45 1019.08 1018.68 1018.25 1017.79
1013.52 1013.66 1013.83 1014.12 1014.56 1015.20 1016.03 1017.01 1018.09 1019.17 1020.17 1021.02 1021.66 1022.07 1022.26 1022.26 1022.14 1021.96 1021.77 1021.61 1021.51 1021.47 1021.48 1021.51 1021.55 1021.57 1021.56 1021.53 1021.47 1021.40 1021.32 1021.23 1021.13 1021.01 1020.86 1020.66 1020.42 1020.12 1019.77 1019.38 1018.95 1018.50 1018.01 1017.51
1013.92 1014.14 1014.39 1014.72 1015.17 1015.78 1016.52 1017.39 1018.32 1019.24 1020.09 1020.80 1021.34 1021.69 1021.87 1021.90 1021.84 1021.75 1021.65 1021.59 1021.58 1021.63 1021.71 1021.81 1021.91 1021.99 1022.03 1022.03 1021.99 1021.92 1021.82 1021.68 1021.51 1021.30 1021.05 1020.75 1020.41 1020.02 1019.59 1019.14 1018.67 1018.18 1017.67 1017.15
1014.32 1014.65 1014.99 1015.38 1015.85 1016.41 1017.07 1017.80 1018.56 1019.31 1019.99 1020.57 1021.00 1021.30 1021.47 1021.53 1021.54 1021.52 1021.52 1021.55 1021.62 1021.74 1021.89 1022.05 1022.19 1022.31 1022.38 1022.40 1022.37 1022.29 1022.15 1021.95 1021.71 1021.41 1021.06 1020.67 1020.23 1019.76 1019.27 1018.77 1018.27 1017.76 1017.25 1016.74
1014.73 1015.19 1015.64 1016.09 1016.57 1017.09 1017.66 1018.26 1018.86 1019.44 1019.97 1020.41 1020.76 1021.00 1021.17 1021.27 1021.33 1021.39 1021.47 1021.57 1021.72 1021.89 1022.07 1022.26 1022.43 1022.56 1022.64 1022.66 1022.62 1022.50 1022.32 1022.07 1021.75 1021.36 1020.92 1020.44 1019.92 1019.38 1018.85 1018.31 1017.80 1017.29 1016.80 1016.31
1015.17 1015.76 1016.31 1016.82 1017.31 1017.80 1018.28 1018.76 1019.22 1019.66 1020.04 1020.38 1020.65 1020.87 1021.03 1021.17 1021.29 1021.41 1021.55 1021.71 1021.89 1022.09 1022.30 1022.49 1022.65 1022.77 1022.84 1022.84 1022.77 1022.61 1022.38 1022.06 1021.66 1021.20 1020.68 1020.12 1019.54 1018.96 1018.39 1017.85 1017.33 1016.85 1016.38 1015.93
1015.66 1016.36 1016.99 1017.55 1018.05 1018.50 1018.90 1019.28 1019.62 1019.93 1020.21 1020.46 1020.68 1020.88 1021.05 1021.22 1021.39 1021.56 1021.75 1021.95 1022.16 1022.36 1022.56 1022.74 1022.89 1022.98 1023.02 1022.98 1022.87 1022.66 1022.37 1021.99 1021.53 1021.00 1020.42 1019.81 1019.19 1018.58 1018.00 1017.46 1016.96 1016.50 1016.07 1015.65
1016.21 1016.98 1017.66 1018.24 1018.72 1019.12 1019.46 1019.74 1019.98 1020.20 1020.40 1020.59 1020.78 1020.97 1021.17 1021.38 1021.59 1021.80 1022.03 1022.25 1022.47 1022.67 1022.86 1023.02 1023.14 1023.20 1023.20 1023.12 1022.96 1022.71 1022.36 1021.93 1021.41 1020.83 1020.21 1019.57 1018.93 1018.32 1017.75 1017.23 1016.75 1016.32 1015.92 1015.53
1016.80 1017.59 1018.26 1018.82 1019.27 1019.61 1019.87 1020.07 1020.24 1020.39 1020.54 1020.70 1020.88 1021.09 1021.31 1021.55 1021.80 1022.06 1022.31 1022.55 1022.78 1022.99 1023.17 1023.31 1023.40 1023.43 1023.40 1023.29 1023.09 1022.79 1022.40 1021.92 1021.37 1020.76 1020.12 1019.48 1018.85 1018.25 1017.71 1017.21 1016.77 1016.37 1015.99 1015.63
1017.38 1018.13 1018.75 1019.24 1019.62 1019.89 1020.08 1020.22 1020.33 1020.44 1020.57 1020.72 1020.92 1021.15 1021.40 1021.68 1021.97 1022.27 1022.55 1022.81 1023.06 1023.27 1023.45 1023.58 1023.66 1023.68 1023.63 1023.49 1023.25 1022.92 1022.50 1021.99 1021.42 1020.80 1020.17 1019.54 1018.94 1018.38 1017.88 1017.43 1017.03 1016.66 1016.30 1015.93
1017.88 1018.53 1019.06 1019.47 1019.76 1019.95 1020.08 1020.16 1020.24 1020.34 1020.47 1020.64 1020.87 1021.13 1021.43 1021.75 1022.08 1022.41 1022.72 1023.01 1023.28 1023.51 1023.69 1023.83 1023.91 1023.92 1023.85 1023.69 1023.44 1023.09 1022.64 1022.12 1021.55 1020.94 1020.33 1019.73 1019.18 1018.68 1018.24 1017.84 1017.48 1017.14 1016.79 1016.43
1018.25 1018.77 1019.18 1019.47 1019.67 1019.79 1019.87 1019.93 1020.01 1020.12 1020.28 1020.49 1020.76 1021.07 1021.42 1021.79 1022.16 1022.52 1022.86 1023.17 1023.46 1023.70 1023.90 1024.04 1024.12 1024.13 1024.05 1023.88 1023.61 1023.24 1022.79 1022.27 1021.70 1021.12 1020.55 1020.01 1019.52 1019.09 1018.71 1018.38 1018.06 1017.76 1017.43 1017.06
1018.45 1018.84 1019.11 1019.30 1019.41 1019.48 1019.53 1019.60 1019.70 1019.85 1020.06 1020.34 1020.67 1021.04 1021.43 1021.84 1022.25 1022.63 1023.00 1023.33 1023.62 1023.87 1024.07 1024.22 1024.30 1024.29 1024.20 1024.01 1023.72 1023.35 1022.89 1022.37 1021.83 1021.28 1020.76 1020.29 1019.87 1019.52 1019.22 1018.95 1018.70 1018.42 1018.11 1017.74
1018.51 1018.76 1018.91 1019.01 1019.06 1019.10 1019.16 1019.25 1019.41 1019.63 1019.92 1020.27 1020.67 1021.10 1021.55 1021.99 1022.42 1022.82 1023.19 1023.52 1023.80 1024.05 1024.23 1024.36 1024.42 1024.39 1024.27 1024.06 1023.75 1023.36 1022.90 1022.40 1021.88 1021.38 1020.92 1020.52 1020.19 1019.92 1019.70 1019.50 1019.29 1019.06 1018.76 1018.40
1018.48 1018.60 1018.66 1018.69 1018.71 1018.76 1018.85 1019.00 1019.24 1019.55 1019.92 1020.36 1020.84 1021.33 1021.81 1022.28 1022.72 1023.11 1023.47 1023.77 1024.03 1024.23 1024.39 1024.47 1024.49 1024.42 1024.26 1024.01 1023.68 1023.28 1022.82 1022.33 1021.85 1021.40 1021.01 1020.68 1020.43 1020.24 1020.09 1019.95 1019.80 1019.60 1019.33 1018.97
1018.43 1018.45 1018.45 1018.44 1018.47 1018.54 1018.69 1018.92 1019.25 1019.66 1020.13 1020.65 1021.19 1021.72 1022.24 1022.72 1023.14 1023.51 1023.83 1024.09 1024.29 1024.44 1024.53 1024.55 1024.50 1024.37 1024.16 1023.88 1023.52 1023.10 1022.64 1022.18 1021.75 1021.35 1021.03 1020.78 1020.60 1020.48 1020.39 1020.31 1020.20 1020.03 1019.77 1019.43
1018.43 1018.40 1018.36 1018.34 1018.39 1018.51 1018.73 1019.05 1019.47 1019.96 1020.52 1021.10 1021.69 1022.26 1022.79 1023.25 1023.65 1023.98 1024.24 1024.43 1024.56 1024.63 1024.64 1024.59 1024.46 1024.27 1024.00 1023.68 1023.29 1022.87 1022.43 1022.00 1021.61 1021.28 1021.02 1020.84 1020.73 1020.67 1020.63 1020.59 1020.50 1020.35 1020.11 1019.78
Thickness
5730 5717 5708 5707 5710 5712 5711 5707 5701 5708 5726 5726 5722 5727 5734 5734 5733 5729 5728 5726 5724 5726 5728 5726 5721 5715 5708 5700 5692 5684 5680 5677 5675 5672 5668 5663 5656 5652 5649 5646 5643 5639 5636 5632
5708 5705 5712 5715 5713 5707 5702 5697 5697 5710 5719 5720 5718 5717 5723 5724 5720 5716 5713 5711 5712 5715 5716 5713 5709 5704 5698 5691 5683 5677 5672 5669 5666 5663 5658 5653 5647 5643 5640 5636 5632 5628 5624 5619
5701 5708 5717 5713 5708 5702 5699 5695 5701 5704 5708 5701 5707 5698 5702 5700 5700 5697 5694 5694 5696 5701 5701 5699 5696 5691 5687 5681 5676 5671 5665 5660 5655 5651 5647 5641 5636 5632 5628 5624 5619 5615 5612 5607
5700 5709 5710 5708 5703 5701 5695 5707 5704 5699 5687 5672 5683 5670 5684 5675 5675 5675 5676 5679 5682 5685 5687 5685 5683 5679 5675 5670 5666 5661 5656 5650 5644 5641 5637 5631 5624 5618 5613 5609 5604 5601 5596 5591
5698 5709 5709 5705 5708 5705 5696 5698 5692 5687 5679 5663 5664 5658 5660 5663 5660 5659 5661 5665 5667 5669 5672 5671 5669 5666 5662 5658 5653 5648 5643 5638 5632 5628 5623 5618 5610 5604 5599 5595 5591 5586 5581 5575
5700 5710 5710 5709 5706 5705 5693 5681 5671 5658 5652 5644 5657 5650 5639 5636 5640 5648 5646 5651 5654 5656 5657 5656 5654 5652 5647 5643 5638 5635 5631 5624 5619 5614 5609 5604 5597 5591 5585 5579 5573 5568 5563 5558
5689 5696 5702 5707 5696 5691 5683 5662 5637 5636 5629 5634 5646 5633 5623 5625 5632 5635 5633 5636 5639 5641 5641 5639 5636 5634 5630 5627 5623 5620 5616 5610 5605 5600 5594 5588 5582 5575 5568 5560 5554 5548 5544 5540
5667 5667 5689 5696 5691 5681 5673 5662 5636 5628 5623 5624 5629 5621 5612 5622 5624 5625 5624 5624 5625 5623 5623 5621 5619 5617 5614 5611 5608 5605 5601 5596 5590 5584 5577 5570 5562 5555 5547 5539 5533 5527 5524 5521
5660 5663 5687 5690 5688 5680 5664 5654 5651 5628 5621 5617 5615 5609 5615 5617 5613 5613 5611 5610 5607 5607 5607 5606 5604 5601 5599 5596 5593 5589 5585 5579 5571 5564 5557 5549 5540 5533 5526 5519 5514 5509 5506 5503
5668 5658 5672 5680 5681 5671 5666 5649 5630 5621 5604 5601 5611 5605 5599 5604 5601 5600 5597 5594 5592 5592 5592 5591 5590 5588 5585 5581 5577 5571 5564 5556 5548 5541 5534 5527 5518 5511 5504 5499 5496 5493 5491 5488
5667 5652 5653 5658 5656 5658 5652 5641 5627 5614 5612 5599 5591 5591 5598 5594 5593 5590 5586 5583 5581 5580 5579 5578 5576 5573 5569 5563 5557 5550 5543 5536 5529 5522 5515 5507 5500 5494 5489 5485 5483 5481 5479 5477
5652 5639 5629 5634 5639 5646 5640 5634 5622 5614 5606 5597 5590 5583 5592 5585 5583 5581 5578 5576 5574 5573 5569 5566 5562 5557 5551 5545 5538 5531 5523 5517 5511 5505 5499 5493 5487 5483 5478 5475 5473 5471 5468 5466
5643 5628 5611 5613 5620 5626 5624 5623 5613 5603 5590 5582 5581 5575 5582 5576 5572 5571 5569 5567 5565 5563 5561 5554 5548 5542 5536 5530 5523 5516 5508 5501 5494 5489 5483 5479 5475 5472 5469 5466 5464 5461 5459 5458
5634 5617 5614 5608 5611 5611 5610 5611 5609 5598 5584 5584 5585 5574 5571 5569 5566 5563 5561 5558 5554 5551 5548 5544 5536 5529 5521 5513 5505 5497 5489 5482 5477 5474 5470 5468 5466 5463 5460 5458 5456 5454 5453 5452
5622 5604 5601 5601 5607 5606 5601 5599 5600 5596 5588 5581 5580 5567 5563 5561 5559 5556 5552 5548 5545 5541 5538 5532 5522 5512 5503 5495 5486 5479 5472 5468 5464 5462 5461 5460 5458 5456 5454 5453 5452 5450 5449 5448
5601 5593 5590 5586 5591 5591 5583 5582 5582 5580 5579 5568 5559 5555 5558 5556 5553 5548 5542 5537 5532 5528 5524 5517 5507 5495 5484 5475 5468 5461 5458 5456 5455 5454 5454 5454 5453 5452 5451 5450 5449 5448 5446 5444
5578 5579 5568 5565 5576 5578 5565 5569 5569 5565 5565 5562 5555 5548 5548 5547 5544 5538 5533 5527 5522 5516 5510 5501 5488 5473 5463 5455 5449 5446 5446 5446 5446 5446 5447 5448 5448 5448 5448 5448 5446 5444 5442 5440
5571 5555 5542 5548 5558 5550 5551 5561 5561 5554 5550 5550 5545 5541 5540 5538 5533 5526 5520 5514 5508 5501 5493 5480 5465 5455 5447 5441 5438 5437 5436 5436 5437 5439 5442 5445 5445 5446 5446 5445 5443 5441 5439 5437
5564 5552 5536 5531 5539 5538 5541 5548 5547 5541 5536 5539 5534 5533 5530 5524 5516 5509 5509 5503 5494 5484 5472 5459 5449 5442 5437 5433 5431 5429 5429 5430 5433 5438 5441 5443 5444 5444 5444 5443 5441 5439 5437 5435
5544 5543 5533 5528 5528 5526 5539 5545 5544 5536 5523 5528 5525 5522 5518 5511 5496 5496 5499 5490 5478 5466 5455 5446 5439 5434 5431 5428 5426 5425 5428 5431 5435 5438 5441 5442 5443 5443 5442 5440 5439 5436 5433 5430
5534 5528 5519 5515 5519 5530 5538 5540 5537 5522 5522 5524 5517 5513 5507 5497 5493 5491 5483 5471 5461 5452 5445 5439 5434 5430 5428 5426 5425 5426 5430 5433 5436 5439 5441 5442 5441 5440 5438 5436 5434 5431 5428 5426
5527 5516 5514 5510 5519 5521 5531 5530 5525 5522 5520 5517 5510 5505 5500 5493 5488 5480 5469 5459 5451 5444 5440 5435 5430 5428 5427 5426 5426 5428 5431 5434 5437 5439 5440 5440 5439 5437 5434 5431 5428 5424 5421 5419
5517 5516 5513 5518 5517 5523 5522 5523 5521 5513 5510 5508 5502 5500 5495 5488 5479 5467 5457 5449 5444 5440 5436 5433 5430 5428 5428 5428 5429 5430 5433 5436 5439 5441 5440 5439 5437 5433 5429 5425 5420 5417 5413 5410
5508 5504 5505 5506 5516 5516 5515 5515 5511 5505 5504 5501 5495 5491 5484 5476 5464 5454 5446 5441 5438 5436 5434 5432 5431 5430 5431 5432 5433 5434 5437 5440 5443 5443 5442 5439 5435 5431 5427 5422 5417 5411 5406 5402
5502 5497 5495 5498 5507 5508 5508 5507 5505 5499 5494 5488 5481 5473 5465 5457 5450 5445 5440 5437 5436 5435 5434 5433 5433 5433 5434 5436 5439 5442 5444 5446 5447 5446 5444 5440 5434 5428 5422 5418 5413 5407 5400 5394
5488 5490 5493 5492 5495 5491 5494 5498 5496 5489 5483 5475 5465 5454 5449 5445 5442 5439 5436 5435 5436 5436 5436 5436 5436 5437 5439 5442 5445 5449 5451 5452 5452 5451 5447 5441 5434 5428 5422 5416 5410 5404 5397 5391